{"data":{"norad_id":82683,"epoch":"2026-09-16T22:08:34.565856Z","epoch_age_seconds":327436,"freshness":"STALE","line1":"1 82683U          26259.92262229  .00000590  00000+0  23633-3 0  9998","line2":"2 82683  98.1414 312.6349 0207920 300.7659  57.3192 14.20751767501760","mean_motion":14.20751767,"eccentricity":0.020792,"inclination_deg":98.1414,"raan_deg":312.6349,"arg_perigee_deg":300.7659,"mean_anomaly_deg":57.3192,"bstar":0.00023633,"rev_number":50176,"period_min":101.35479212112,"perigee_km":673.08937595186,"apogee_km":972.53361825542,"semimajor_km":7200.9484971036,"source":"CELESTRAK","updated_at":"2026-09-20T09:00:32.437695Z"}}